Time,TemperatureF,DewpointF,PressureIn,WindDirection,WindDirectionDegrees,WindSpeedMPH,WindSpeedGustMPH,Humidity,HourlyPrecipIn,Conditions,Clouds,dailyrainin,SoftwareType,DateUTC
2013-01-22 00:02:00,2.0,-3.0,-100.00,North,0,1.0,2.0,79,-99.99,,,-99.99,,2013-01-22 06:02:00,
2013-01-22 00:33:00,2.0,-3.0,-100.00,North,0,1.0,2.0,79,-99.99,,,-99.99,,2013-01-22 06:33:00,
2013-01-22 00:43:00,2.0,-3.0,-100.00,North,0,1.0,2.0,79,-99.99,,,-99.99,,2013-01-22 06:43:00,
2013-01-22 00:53:00,2.0,-3.0,-100.00,North,0,1.0,2.0,79,-99.99,,,-99.99,,2013-01-22 06:53:00,
2013-01-22 01:02:00,1.0,-3.0,-100.00,SSW,205,0.0,0.0,82,-99.99,,,-99.99,,2013-01-22 07:02:00,
2013-01-22 01:33:00,1.0,-3.0,-100.00,SSW,205,0.0,0.0,82,-99.99,,,-99.99,,2013-01-22 07:33:00,
2013-01-22 01:43:00,1.0,-3.0,-100.00,SSW,205,0.0,0.0,82,-99.99,,,-99.99,,2013-01-22 07:43:00,
2013-01-22 01:53:00,1.0,-3.0,-100.00,SSW,205,0.0,0.0,82,-99.99,,,-99.99,,2013-01-22 07:53:00,
2013-01-22 02:02:00,1.0,-3.0,-100.00,SW,225,0.0,0.0,84,-99.99,,,-99.99,,2013-01-22 08:02:00,
2013-01-22 02:33:00,1.0,-3.0,-100.00,SW,225,0.0,0.0,84,-99.99,,,-99.99,,2013-01-22 08:33:00,
2013-01-22 02:43:00,1.0,-3.0,-100.00,SW,225,0.0,0.0,84,-99.99,,,-99.99,,2013-01-22 08:43:00,
2013-01-22 02:52:00,1.0,-3.0,-100.00,SW,225,0.0,0.0,84,-99.99,,,-99.99,,2013-01-22 08:52:00,
2013-01-22 03:02:00,0.0,-3.0,-100.00,WSW,255,0.0,1.0,85,-99.99,,,-99.99,,2013-01-22 09:02:00,
2013-01-22 03:33:00,0.0,-3.0,-100.00,WSW,255,0.0,1.0,85,-99.99,,,-99.99,,2013-01-22 09:33:00,
2013-01-22 03:43:00,0.0,-3.0,-100.00,WSW,255,0.0,1.0,85,-99.99,,,-99.99,,2013-01-22 09:43:00,
2013-01-22 03:52:00,0.0,-3.0,-100.00,WSW,255,0.0,1.0,85,-99.99,,,-99.99,,2013-01-22 09:52:00,
2013-01-22 04:02:00,2.0,-2.0,-100.00,East,85,0.0,1.0,86,-99.99,,,-99.99,,2013-01-22 10:02:00,
2013-01-22 04:33:00,2.0,-2.0,-100.00,East,85,0.0,1.0,86,-99.99,,,-99.99,,2013-01-22 10:33:00,
2013-01-22 04:42:00,2.0,-2.0,-100.00,East,85,0.0,1.0,86,-99.99,,,-99.99,,2013-01-22 10:42:00,
2013-01-22 04:52:00,2.0,-2.0,-100.00,East,85,0.0,1.0,86,-99.99,,,-99.99,,2013-01-22 10:52:00,
2013-01-22 05:02:00,3.0,-1.0,-100.00,SSE,150,0.0,1.0,86,-99.99,,,-99.99,,2013-01-22 11:02:00,
2013-01-22 05:33:00,3.0,-1.0,-100.00,SSE,150,0.0,1.0,86,-99.99,,,-99.99,,2013-01-22 11:33:00,
2013-01-22 05:43:00,3.0,-1.0,-100.00,SSE,150,0.0,1.0,86,-99.99,,,-99.99,,2013-01-22 11:43:00,
2013-01-22 05:53:00,3.0,-1.0,-100.00,SSE,150,0.0,1.0,86,-99.99,,,-99.99,,2013-01-22 11:53:00,
2013-01-22 06:02:00,2.0,-1.0,-100.00,SE,130,1.0,2.0,86,-99.99,,,-99.99,,2013-01-22 12:02:00,
2013-01-22 06:33:00,2.0,-1.0,-100.00,SE,130,1.0,2.0,86,-99.99,,,-99.99,,2013-01-22 12:33:00,
2013-01-22 06:43:00,2.0,-1.0,-100.00,SE,130,1.0,2.0,86,-99.99,,,-99.99,,2013-01-22 12:43:00,
2013-01-22 06:53:00,2.0,-1.0,-100.00,SE,130,1.0,2.0,86,-99.99,,,-99.99,,2013-01-22 12:53:00,
2013-01-22 07:02:00,2.0,-1.0,-100.00,SE,125,2.0,4.0,87,-99.99,,,-99.99,,2013-01-22 13:02:00,
2013-01-22 07:34:00,2.0,-1.0,-100.00,SE,125,2.0,4.0,87,-99.99,,,-99.99,,2013-01-22 13:34:00,
2013-01-22 07:43:00,2.0,-1.0,-100.00,SE,125,2.0,4.0,87,-99.99,,,-99.99,,2013-01-22 13:43:00,
2013-01-22 07:53:00,2.0,-1.0,-100.00,SE,125,2.0,4.0,87,-99.99,,,-99.99,,2013-01-22 13:53:00,
2013-01-22 08:02:00,3.0,0.0,-100.00,SSE,160,2.0,4.0,87,-99.99,,,-99.99,,2013-01-22 14:02:00,
2013-01-22 08:34:00,3.0,0.0,-100.00,SSE,160,2.0,4.0,87,-99.99,,,-99.99,,2013-01-22 14:34:00,
2013-01-22 08:44:00,3.0,0.0,-100.00,SSE,160,2.0,4.0,87,-99.99,,,-99.99,,2013-01-22 14:44:00,
2013-01-22 08:54:00,3.0,0.0,-100.00,SSE,160,2.0,4.0,87,-99.99,,,-99.99,,2013-01-22 14:54:00,
2013-01-22 09:02:00,4.0,1.0,-100.00,ESE,115,2.0,3.0,86,-99.99,,,-99.99,,2013-01-22 15:02:00,
2013-01-22 09:34:00,4.0,1.0,-100.00,ESE,115,2.0,3.0,86,-99.99,,,-99.99,,2013-01-22 15:34:00,
2013-01-22 09:44:00,4.0,1.0,-100.00,ESE,115,2.0,3.0,86,-99.99,,,-99.99,,2013-01-22 15:44:00,
2013-01-22 09:53:00,4.0,1.0,-100.00,ESE,115,2.0,3.0,86,-99.99,,,-99.99,,2013-01-22 15:53:00,
2013-01-22 10:02:00,5.0,1.0,-100.00,SSE,160,3.0,6.0,81,-99.99,,,-99.99,,2013-01-22 16:02:00,
2013-01-22 10:33:00,5.0,1.0,-100.00,SSE,160,3.0,6.0,81,-99.99,,,-99.99,,2013-01-22 16:33:00,
2013-01-22 10:43:00,5.0,1.0,-100.00,SSE,160,3.0,6.0,81,-99.99,,,-99.99,,2013-01-22 16:43:00,
2013-01-22 10:54:00,5.0,1.0,-100.00,SSE,160,3.0,6.0,81,-99.99,,,-99.99,,2013-01-22 16:54:00,
2013-01-22 11:02:00,9.0,4.0,-100.00,SW,220,6.0,7.0,80,-99.99,,,-99.99,,2013-01-22 17:02:00,
2013-01-22 11:35:00,9.0,4.0,-100.00,SW,220,6.0,7.0,80,-99.99,,,-99.99,,2013-01-22 17:35:00,
2013-01-22 11:44:00,9.0,4.0,-100.00,SW,220,6.0,7.0,80,-99.99,,,-99.99,,2013-01-22 17:44:00,
2013-01-22 11:54:00,9.0,4.0,-100.00,SW,220,6.0,7.0,80,-99.99,,,-99.99,,2013-01-22 17:54:00,
2013-01-22 12:02:00,11.0,6.0,-100.00,SSW,205,4.0,7.0,82,-99.99,,,-99.99,,2013-01-22 18:02:00,
2013-01-22 12:34:00,11.0,6.0,-100.00,SSW,205,4.0,7.0,82,-99.99,,,-99.99,,2013-01-22 18:34:00,
2013-01-22 12:44:00,11.0,6.0,-100.00,SSW,205,4.0,7.0,82,-99.99,,,-99.99,,2013-01-22 18:44:00,
2013-01-22 12:54:00,11.0,6.0,-100.00,SSW,205,4.0,7.0,82,-99.99,,,-99.99,,2013-01-22 18:54:00,
2013-01-22 13:02:00,12.0,7.0,-100.00,SSE,160,5.0,8.0,80,-99.99,,,-99.99,,2013-01-22 19:02:00,
2013-01-22 13:34:00,12.0,7.0,-100.00,SSE,160,5.0,8.0,80,-99.99,,,-99.99,,2013-01-22 19:34:00,
2013-01-22 13:43:00,12.0,7.0,-100.00,SSE,160,5.0,8.0,80,-99.99,,,-99.99,,2013-01-22 19:43:00,
2013-01-22 13:54:00,12.0,7.0,-100.00,SSE,160,5.0,8.0,80,-99.99,,,-99.99,,2013-01-22 19:54:00,
2013-01-22 14:02:00,14.0,9.0,-100.00,South,185,6.0,10.0,80,-99.99,,,-99.99,,2013-01-22 20:02:00,
2013-01-22 14:34:00,14.0,9.0,-100.00,South,185,6.0,10.0,80,-99.99,,,-99.99,,2013-01-22 20:34:00,
2013-01-22 14:43:00,14.0,9.0,-100.00,South,185,6.0,10.0,80,-99.99,,,-99.99,,2013-01-22 20:43:00,
2013-01-22 14:53:00,14.0,9.0,-100.00,South,185,6.0,10.0,80,-99.99,,,-99.99,,2013-01-22 20:53:00,
2013-01-22 15:02:00,15.0,10.0,-100.00,West,265,6.0,7.0,81,-99.99,,,-99.99,,2013-01-22 21:02:00,
2013-01-22 15:34:00,15.0,10.0,-100.00,West,265,6.0,7.0,81,-99.99,,,-99.99,,2013-01-22 21:34:00,
2013-01-22 15:43:00,15.0,10.0,-100.00,West,265,6.0,7.0,81,-99.99,,,-99.99,,2013-01-22 21:43:00,
2013-01-22 15:53:00,15.0,10.0,-100.00,West,265,6.0,7.0,81,-99.99,,,-99.99,,2013-01-22 21:53:00,
2013-01-22 16:02:00,15.0,10.0,-100.00,SSW,210,4.0,7.0,82,-99.99,,,-99.99,,2013-01-22 22:02:00,
2013-01-22 16:33:00,15.0,10.0,-100.00,SSW,210,4.0,7.0,82,-99.99,,,-99.99,,2013-01-22 22:33:00,
2013-01-22 16:43:00,15.0,10.0,-100.00,SSW,210,4.0,7.0,82,-99.99,,,-99.99,,2013-01-22 22:43:00,
2013-01-22 16:53:00,15.0,10.0,-100.00,SSW,210,4.0,7.0,82,-99.99,,,-99.99,,2013-01-22 22:53:00,
2013-01-22 17:02:00,15.0,12.0,-100.00,SSW,205,4.0,5.0,86,-99.99,,,-99.99,,2013-01-22 23:02:00,
2013-01-22 17:33:00,15.0,12.0,-100.00,SSW,205,4.0,5.0,86,-99.99,,,-99.99,,2013-01-22 23:33:00,
2013-01-22 17:43:00,15.0,12.0,-100.00,SSW,205,4.0,5.0,86,-99.99,,,-99.99,,2013-01-22 23:43:00,
2013-01-22 17:53:00,15.0,12.0,-100.00,SSW,205,4.0,5.0,86,-99.99,,,-99.99,,2013-01-22 23:53:00,
2013-01-22 18:02:00,15.0,12.0,-100.00,SSE,160,2.0,2.0,89,-99.99,,,-99.99,,2013-01-23 00:02:00,
2013-01-22 18:33:00,15.0,12.0,-100.00,SSE,160,2.0,2.0,89,-99.99,,,-99.99,,2013-01-23 00:33:00,
2013-01-22 18:43:00,15.0,12.0,-100.00,SSE,160,2.0,2.0,89,-99.99,,,-99.99,,2013-01-23 00:43:00,
2013-01-22 18:52:00,15.0,12.0,-100.00,SSE,160,2.0,2.0,89,-99.99,,,-99.99,,2013-01-23 00:52:00,
2013-01-22 19:02:00,14.0,13.0,-100.00,SSE,160,1.0,2.0,93,-99.99,,,-99.99,,2013-01-23 01:02:00,
2013-01-22 19:33:00,14.0,13.0,-100.00,SSE,160,1.0,2.0,93,-99.99,,,-99.99,,2013-01-23 01:33:00,
2013-01-22 19:43:00,14.0,13.0,-100.00,SSE,160,1.0,2.0,93,-99.99,,,-99.99,,2013-01-23 01:43:00,
2013-01-22 19:53:00,14.0,13.0,-100.00,SSE,160,1.0,2.0,93,-99.99,,,-99.99,,2013-01-23 01:53:00,
2013-01-22 20:02:00,13.0,12.0,-100.00,East,90,3.0,4.0,95,-99.99,,,-99.99,,2013-01-23 02:02:00,
2013-01-22 20:33:00,13.0,12.0,-100.00,East,90,3.0,4.0,95,-99.99,,,-99.99,,2013-01-23 02:33:00,
2013-01-22 20:43:00,13.0,12.0,-100.00,East,90,3.0,4.0,95,-99.99,,,-99.99,,2013-01-23 02:43:00,
2013-01-22 20:53:00,13.0,12.0,-100.00,East,90,3.0,4.0,95,-99.99,,,-99.99,,2013-01-23 02:53:00,
2013-01-22 21:02:00,12.0,11.0,-100.00,NW,320,1.0,2.0,97,-99.99,,,-99.99,,2013-01-23 03:02:00,
2013-01-22 21:33:00,12.0,11.0,-100.00,NW,320,1.0,2.0,97,-99.99,,,-99.99,,2013-01-23 03:33:00,
2013-01-22 21:43:00,12.0,11.0,-100.00,NW,320,1.0,2.0,97,-99.99,,,-99.99,,2013-01-23 03:43:00,
2013-01-22 21:53:00,12.0,11.0,-100.00,NW,320,1.0,2.0,97,-99.99,,,-99.99,,2013-01-23 03:53:00,
2013-01-22 22:02:00,10.0,10.0,-100.00,WNW,295,1.0,2.0,99,-99.99,,,-99.99,,2013-01-23 04:02:00,
2013-01-22 22:33:00,10.0,10.0,-100.00,WNW,295,1.0,2.0,99,-99.99,,,-99.99,,2013-01-23 04:33:00,
2013-01-22 22:43:00,10.0,10.0,-100.00,WNW,295,1.0,2.0,99,-99.99,,,-99.99,,2013-01-23 04:43:00,
2013-01-22 22:53:00,10.0,10.0,-100.00,WNW,295,1.0,2.0,99,-99.99,,,-99.99,,2013-01-23 04:53:00,
2013-01-22 23:02:00,10.0,10.0,-100.00,North,355,2.0,4.0,99,-99.99,,,-99.99,,2013-01-23 05:02:00,
2013-01-22 23:33:00,10.0,10.0,-100.00,North,355,2.0,4.0,99,-99.99,,,-99.99,,2013-01-23 05:33:00,
2013-01-22 23:43:00,10.0,10.0,-100.00,North,355,2.0,4.0,99,-99.99,,,-99.99,,2013-01-23 05:43:00,
2013-01-22 23:53:00,10.0,10.0,-100.00,North,355,2.0,4.0,99,-99.99,,,-99.99,,2013-01-23 05:53:00,